Find Starlink 34982

NORAD ID: 65243 Int'l Des: 2025-179 Owner: SPXS Country: US Constellation: starlink operational
LEOCIRCULARRETROGRADESSO

現在のビュー

3D地球を読み込み中...

About Starlink 34982

Starlink 34982 (NORAD 65243) is a starlink constellation satellite (v2 mini) launched Aug 18, 2025 by SPXS of US. It operates in LEO, CIRCULAR, RETROGRADE, SSO orbit with a mass of 575.00 kg.

次回通過

Passes for default location (London). Set your location on the main map for personalized predictions.

高度履歴

Loading altitude history...

軌道要素

1 65243U 25179J 26263.57678621 .00008300 00000-0 25907-3 0 9992
2 65243 97.2839 302.8811 0001373 115.6629 244.4756 15.33451882 61488
Epoch: Sep 20, 2026 • Age: 6 hours

現在のステータス

高度 479.0 km
遠地点 / 近地点 N/A
速度 7.62 km/s
衛星直下点 -33.40°S, 8.8°E
打ち上げ日 Aug 18, 2025
運用期間 1 year
タイプ internet

技術仕様

分類 Payload
質量 575.00 kg
乾燥質量 530.00 kg
長さ 0.30 m
スパン 29.00 m
形状 ? Box + pan
製造者 SPXS
バスタイプ Starlink V2MO
フェーズステータス In Orbit
所有者/国 SPXS/US

Most Searched